Location: Newark
(17.1333°N, 61.8333°W)
Time: 10:31:44
(UTC+00:00)

Envisat - Pass Details

Date: 22 July 2019
Orbit: 764 x 766 km, 98.1° (Epoch: 25 August)

Event Time Altitude Azimuth Distance (km) Brightness Sun altitude
Rises 23:02:12 0° 179° (S) 3,220 6.0 -4.9°
Reaches altitude 10° 23:04:34 10° 184° (S) 2,295 5.3 -5.5°
Maximum altitude 23:09:27 50° 259° (W) 965 4.0 -6.5°
Drops below altitude 10° 23:14:22 10° 335° (NNW) 2,299 6.3 -7.6°
Sets 23:16:44 0° 340° (NNW) 3,226 7.0 -8.1°
